Regional Weather Roundup
Issued by NWS

Home | Current Version | Previous Version | Graphics & Text | Print | Product List | Glossary On
Versions: 1 2 3 4 5 6 7 8 9 10 11 12 13 14 15 16 17 18 19 20 21 22 23 24 25 26 27 28 29 30 31 32 33 34 35 36 37 38 39 40 41 42 43 44 45 46 47 48 49 50
000
ASUS44 KMEG 170200
RWRTN
TENNESSEE HOURLY STATE WEATHER ROUNDUP
NATIONAL WEATHER SERVICE MEMPHIS TN
900 PM CDT TUE SEP 16 2014

TNZ002-004-019-021-049-052-054-088>092-170300-
WEST TENNESSEE

CITY           SKY/WX    TMP DP  RH WIND       PRES   REMARKS
MEMPHIS INTL   PTCLDY    72  63  73 N6        30.06R
NWS MEMPHIS      N/A     70 N/A N/A MISG        N/A
JACKSON        MOCLDY    65  60  84 CALM      30.07R
DYERSBURG      CLOUDY    66  52  59 N9        30.08S
PARIS          CLOUDY    63  55  77 NE7       30.09R
SAVANNAH       CLEAR     64  63  94 CALM      30.06S
$$

TNZ008-025-027-028-033-062-065-066-170300-
NORTH MIDDLE TENNESSEE

CITY           SKY/WX    TMP DP  RH WIND       PRES   REMARKS
NASHVILLE      PTCLDY    63  58  83 NW3       30.07R
CLARKSVILLE    CLEAR     57  52  83 N7        30.08R
COOKEVILLE       N/A     59  57  94 CALM      30.07R VSB 0
CROSSVILLE     CLEAR     63  58  83 NW5       30.09R
$$

TNZ061-075-076-078-094-096-097-170300-
SOUTH MIDDLE TENNESSEE

CITY           SKY/WX    TMP DP  RH WIND       PRES   REMARKS
SHELBYVILLE    CLOUDY    66  64  94 CALM      30.07S
$$

TNZ017-018-042-046-047-170300-
NORTHEAST TENNESSEE

CITY           SKY/WX    TMP DP  RH WIND       PRES   REMARKS
TRI CITIES     MOCLDY    67  59  75 CALM      30.05R
$$

TNZ012-013-036-069-073-074-170300-
CENTRAL EAST TENNESSEE

CITY           SKY/WX    TMP DP  RH WIND       PRES   REMARKS
KNOXVILLE      NOT AVBL
OAK RIDGE      CLEAR     65  61  87 CALM      30.06R
$$

TNZ083-085-099-170300-
SOUTHEAST TENNESSEE

CITY           SKY/WX    TMP DP  RH WIND       PRES   REMARKS
CHATTANOOGA    PTCLDY    72  65  78 N12       30.03R
$$

SKY/WX REPORTED AS FAIR MEANS FEW OR NO CLOUDS BELOW
12 THOUSAND FEET.




USA.gov is the U.S. government's official web portal to all federal, state and local government web resources and services.